| time (UTC) | temp F | wind direction | speed MPH | gust MPH | rain 1hr in | rain 24hr in | rain mn in | humidity % | barometer mb |
| 20260503230038 | 68 | 278 | 8.0 | 21.0 | 0.00 | 0.00 | 0.00 | 25 | 1003.0 |
| 20260503230036 | 68 | 242 | 7.0 | 17.0 | 0.00 | 0.00 | 0.00 | 24 | 1010.7 |
| 20260503224548 | 68 | 315 | 6.0 | 16.0 | 0.00 | 0.00 | 0.00 | 26 | 1010.9 |
| 20260503224538 | 68 | 309 | 4.0 | 16.0 | 0.00 | 0.00 | 0.00 | 27 | 1003.0 |
| 20260503223043 | 68 | 292 | 3.0 | 14.0 | 0.00 | 0.00 | 0.00 | 26 | 1010.7 |
| 20260503223038 | 68 | 236 | 3.0 | 12.0 | 0.00 | 0.00 | 0.00 | 27 | 1003.0 |
| 20260503221537 | 69 | 254 | 5.0 | 13.0 | 0.00 | 0.00 | 0.00 | 27 | 1002.9 |
| 20260503220040 | 68 | 296 | 6.0 | 15.0 | 0.00 | 0.00 | 0.00 | 28 | 1010.6 |
| 20260503220038 | 68 | 296 | 7.0 | 15.0 | 0.00 | 0.00 | 0.00 | 28 | 1003.0 |
| 20260503214543 | 68 | 360 | 7.0 | 18.0 | 0.00 | 0.00 | 0.00 | 28 | 1010.5 |
| 20260503214534 | 68 | 296 | 9.0 | 18.0 | 0.00 | 0.00 | 0.00 | 28 | 1002.9 |
| 20260503213052 | 69 | 309 | 9.0 | 18.0 | 0.00 | 0.00 | 0.00 | 29 | 1010.6 |
| 20260503213035 | 69 | 277 | 11.0 | 19.0 | 0.00 | 0.00 | 0.00 | 30 | 1003.0 |
| 20260503211602 | 68 | 248 | 9.0 | 16.0 | 0.00 | 0.00 | 0.00 | 28 | 1010.7 |
| 20260503211538 | 68 | 251 | 9.0 | 16.0 | 0.00 | 0.00 | 0.00 | 29 | 1003.0 |
| 20260503210039 | 69 | 286 | 5.0 | 18.0 | 0.00 | 0.00 | 0.00 | 29 | 1010.6 |
| 20260503210032 | 68 | 286 | 5.0 | 18.0 | 0.00 | 0.00 | 0.00 | 30 | 1003.1 |
| 20260503204557 | 69 | 303 | 5.0 | 12.0 | 0.00 | 0.00 | 0.00 | 30 | 1010.7 |
| 20260503204531 | 69 | 290 | 6.0 | 12.0 | 0.00 | 0.00 | 0.00 | 30 | 1003.1 |
| 20260503203040 | 68 | 229 | 12.0 | 21.0 | 0.00 | 0.00 | 0.00 | 30 | 1010.8 |
| 20260503203027 | 68 | 289 | 11.0 | 21.0 | 0.00 | 0.00 | 0.00 | 30 | 1003.3 |
| 20260503201540 | 68 | 275 | 5.0 | 20.0 | 0.00 | 0.00 | 0.00 | 31 | 1011.0 |
| 20260503201525 | 68 | 275 | 7.0 | 20.0 | 0.00 | 0.00 | 0.00 | 32 | 1003.4 |
| 20260503200036 | 68 | 258 | 7.0 | 16.0 | 0.00 | 0.00 | 0.00 | 30 | 1011.3 |
| 20260503200022 | 68 | 258 | 7.0 | 14.0 | 0.00 | 0.00 | 0.00 | 31 | 1003.6 |
| 20260503194541 | 68 | 291 | 4.0 | 12.0 | 0.00 | 0.00 | 0.00 | 35 | 1011.5 |
| 20260503194521 | 68 | 291 | 5.0 | 12.0 | 0.00 | 0.00 | 0.00 | 36 | 1003.7 |
| 20260503193040 | 68 | 240 | 7.0 | 15.0 | 0.00 | 0.00 | 0.00 | 35 | 1011.5 |
| 20260503193034 | 68 | 239 | 8.0 | 15.0 | 0.00 | 0.00 | 0.00 | 36 | 1003.9 |
| 20260503191554 | 66 | 248 | 6.0 | 11.0 | 0.00 | 0.00 | 0.00 | 38 | 1011.6 |
| 20260503191517 | 66 | 248 | 6.0 | 11.0 | 0.00 | 0.00 | 0.00 | 39 | 1003.9 |
| 20260503190040 | 65 | 336 | 4.0 | 17.0 | 0.00 | 0.00 | 0.00 | 39 | 1011.8 |
| 20260503190025 | 65 | 346 | 6.0 | 14.0 | 0.00 | 0.00 | 0.00 | 40 | 1004.1 |
| 20260503184536 | 66 | 232 | 4.0 | 14.0 | 0.00 | 0.00 | 0.00 | 38 | 1011.9 |
| 20260503184517 | 66 | 263 | 4.0 | 14.0 | 0.00 | 0.00 | 0.00 | 39 | 1004.2 |
| 20260503183043 | 65 | 220 | 5.0 | 16.0 | 0.00 | 0.00 | 0.00 | 39 | 1012.0 |
| 20260503183012 | 65 | 208 | 6.0 | 11.0 | 0.00 | 0.00 | 0.00 | 39 | 1004.3 |
| 20260503181535 | 65 | 226 | 5.0 | 19.0 | 0.00 | 0.00 | 0.00 | 45 | 1012.2 |
| 20260503181510 | 65 | 228 | 4.0 | 19.0 | 0.00 | 0.00 | 0.00 | 45 | 1004.5 |
| 20260503180039 | 64 | 223 | 6.0 | 12.0 | 0.00 | 0.00 | 0.00 | 43 | 1012.3 |
| 20260503180007 | 64 | 223 | 5.0 | 11.0 | 0.00 | 0.00 | 0.00 | 42 | 1004.7 |
| 20260503174551 | 64 | 240 | 7.0 | 14.0 | 0.00 | 0.00 | 0.00 | 43 | 1012.4 |
| 20260503174504 | 64 | 251 | 8.0 | 14.0 | 0.00 | 0.00 | 0.00 | 45 | 1004.9 |
| 20260503173035 | 64 | 234 | 7.0 | 15.0 | 0.00 | 0.00 | 0.00 | 41 | 1012.6 |
| 20260503173005 | 64 | 226 | 8.0 | 15.0 | 0.00 | 0.00 | 0.00 | 43 | 1005.1 |
| 20260503171601 | 63 | 246 | 4.0 | 12.0 | 0.00 | 0.00 | 0.00 | 44 | 1005.2 |
| 20260503171536 | 62 | 246 | 6.0 | 12.0 | 0.00 | 0.00 | 0.00 | 42 | 1012.9 |
| 20260503081554 | 48 | 0 | 0.0 | 0.0 | 0.00 | 0.00 | 0.00 | 73 | 1016.4 |
| 20260503081540 | 48 | 250 | 0.0 | 0.0 | 0.00 | 0.00 | 0.00 | 73 | 1009.4 |
| 20260503071558 | 51 | 250 | 1.0 | 7.0 | 0.00 | 0.00 | 0.00 | 57 | 1016.8 |
| 20260503071529 | 51 | 250 | 1.0 | 5.0 | 0.00 | 0.00 | 0.00 | 57 | 1009.9 |
| 20260503054552 | 51 | 215 | 2.0 | 5.0 | 0.00 | 0.00 | 0.00 | 53 | 1017.0 |
| 20260503054507 | 51 | 215 | 3.0 | 5.0 | 0.00 | 0.00 | 0.00 | 53 | 1010.4 |
| 20260503053100 | 50 | 215 | 2.0 | 4.0 | 0.00 | 0.00 | 0.00 | 54 | 1010.5 |
| 20260503053040 | 50 | 215 | 2.0 | 4.0 | 0.00 | 0.00 | 0.00 | 54 | 1017.2 |
| 20260503051557 | 51 | 216 | 3.0 | 7.0 | 0.00 | 0.00 | 0.00 | 52 | 1010.7 |
| 20260503051547 | 51 | 216 | 1.0 | 7.0 | 0.00 | 0.00 | 0.00 | 52 | 1017.3 |
| 20260503050054 | 50 | 219 | 3.0 | 7.0 | 0.00 | 0.00 | 0.00 | 52 | 1011.1 |
| 20260503050037 | 50 | 219 | 2.0 | 7.0 | 0.00 | 0.00 | 0.00 | 52 | 1017.7 |
| 20260503044555 | 51 | 254 | 3.0 | 7.0 | 0.00 | 0.00 | 0.00 | 51 | 1011.3 |
| 20260503044536 | 51 | 254 | 2.0 | 7.0 | 0.00 | 0.00 | 0.00 | 50 | 1017.8 |
| 20260503043052 | 51 | 194 | 6.0 | 10.0 | 0.00 | 0.00 | 0.00 | 51 | 1011.2 |
| 20260503043045 | 51 | 188 | 5.0 | 10.0 | 0.00 | 0.00 | 0.00 | 50 | 1017.7 |
| 20260503041552 | 51 | 193 | 5.0 | 10.0 | 0.00 | 0.00 | 0.00 | 51 | 1011.4 |
| 20260503041543 | 51 | 195 | 5.0 | 11.0 | 0.00 | 0.00 | 0.00 | 51 | 1017.8 |
| 20260503040050 | 51 | 209 | 4.0 | 9.0 | 0.00 | 0.00 | 0.00 | 52 | 1011.5 |
| 20260503040040 | 51 | 209 | 4.0 | 9.0 | 0.00 | 0.00 | 0.00 | 52 | 1017.9 |
| 20260503034601 | 51 | 188 | 4.0 | 7.0 | 0.00 | 0.00 | 0.00 | 51 | 1011.8 |
| 20260503034544 | 51 | 188 | 5.0 | 7.0 | 0.00 | 0.00 | 0.00 | 51 | 1018.1 |
| 20260503033054 | 51 | 192 | 3.0 | 6.0 | 0.00 | 0.00 | 0.00 | 51 | 1012.1 |
| 20260503033050 | 51 | 192 | 3.0 | 6.0 | 0.00 | 0.00 | 0.00 | 50 | 1018.3 |
| 20260503031548 | 50 | 192 | 4.0 | 7.0 | 0.00 | 0.00 | 0.00 | 52 | 1012.2 |
| 20260503031538 | 50 | 192 | 4.0 | 7.0 | 0.00 | 0.00 | 0.00 | 51 | 1018.5 |
| 20260503030044 | 51 | 194 | 4.0 | 6.0 | 0.00 | 0.00 | 0.00 | 50 | 1012.5 |
| 20260503030040 | 51 | 194 | 3.0 | 6.0 | 0.00 | 0.00 | 0.00 | 49 | 1018.8 |
| 20260503024547 | 51 | 226 | 4.0 | 6.0 | 0.00 | 0.00 | 0.00 | 47 | 1018.9 |
| 20260503024540 | 51 | 226 | 4.0 | 6.0 | 0.00 | 0.00 | 0.00 | 48 | 1012.5 |
| 20260503023045 | 52 | 239 | 2.0 | 5.0 | 0.00 | 0.00 | 0.00 | 48 | 1018.9 |
| 20260503023037 | 52 | 239 | 3.0 | 5.0 | 0.00 | 0.00 | 0.00 | 48 | 1012.7 |
| 20260503021539 | 52 | 242 | 2.0 | 4.0 | 0.00 | 0.00 | 0.00 | 48 | 1019.1 |
| 20260503021536 | 52 | 242 | 2.0 | 4.0 | 0.00 | 0.00 | 0.00 | 48 | 1012.9 |
| 20260503020035 | 53 | 243 | 2.0 | 7.0 | 0.00 | 0.00 | 0.00 | 46 | 1019.0 |
| 20260503014538 | 53 | 244 | 2.0 | 4.0 | 0.00 | 0.00 | 0.00 | 44 | 1013.0 |
| 20260503014536 | 53 | 244 | 2.0 | 4.0 | 0.00 | 0.00 | 0.00 | 44 | 1019.1 |
| 20260503013039 | 54 | 244 | 1.0 | 3.0 | 0.00 | 0.00 | 0.00 | 42 | 1019.1 |
| 20260503013034 | 54 | 244 | 0.0 | 3.0 | 0.00 | 0.00 | 0.00 | 42 | 1013.1 |
| 20260503011546 | 54 | 244 | 2.0 | 5.0 | 0.00 | 0.00 | 0.00 | 42 | 1019.2 |
| 20260503011532 | 54 | 244 | 2.0 | 4.0 | 0.00 | 0.00 | 0.00 | 42 | 1013.1 |
| 20260503010039 | 55 | 245 | 1.0 | 5.0 | 0.00 | 0.00 | 0.00 | 42 | 1019.3 |
| 20260503010035 | 55 | 245 | 1.0 | 4.0 | 0.00 | 0.00 | 0.00 | 42 | 1013.3 |
| 20260503004539 | 55 | 244 | 2.0 | 10.0 | 0.00 | 0.00 | 0.00 | 40 | 1019.5 |
| 20260503004532 | 55 | 244 | 1.0 | 7.0 | 0.00 | 0.00 | 0.00 | 41 | 1013.4 |
| 20260503003046 | 56 | 248 | 1.0 | 8.0 | 0.00 | 0.00 | 0.00 | 40 | 1013.5 |
| 20260503003039 | 56 | 247 | 1.0 | 8.0 | 0.00 | 0.00 | 0.00 | 40 | 1019.5 |
| 20260503001547 | 56 | 252 | 3.0 | 9.0 | 0.00 | 0.00 | 0.00 | 37 | 1013.6 |
| 20260503001536 | 56 | 252 | 3.0 | 14.0 | 0.00 | 0.00 | 0.00 | 37 | 1019.5 |
| 20260503000042 | 56 | 213 | 4.0 | 14.0 | 0.00 | 0.00 | 0.00 | 36 | 1019.7 |
| 20260503000027 | 56 | 213 | 6.0 | 12.0 | 0.00 | 0.00 | 0.00 | 37 | 1013.7 |
| 20260502234558 | 57 | 253 | 4.0 | 13.0 | 0.00 | 0.00 | 0.00 | 36 | 1019.8 |
| 20260502234533 | 57 | 253 | 3.0 | 12.0 | 0.00 | 0.00 | 0.00 | 37 | 1013.8 |
| 20260502233039 | 57 | 263 | 6.0 | 14.0 | 0.00 | 0.00 | 0.00 | 36 | 1019.9 |
| 20260502233027 | 57 | 263 | 5.0 | 14.0 | 0.00 | 0.00 | 0.00 | 36 | 1014.1 |
| 20260502231538 | 57 | 254 | 5.0 | 14.0 | 0.00 | 0.00 | 0.00 | 35 | 1019.9 |
| 20260502231524 | 57 | 254 | 6.0 | 14.0 | 0.00 | 0.00 | 0.00 | 35 | 1014.0 |